Orbital Elements at Epoch 2459200.5 (2020-Dec-17.0) TDB
Reference: JPL 19 (heliocentric ecliptic J2000)
Element | Value | Uncertainty (1-sigma) | Units |
e | .04391767417298076 | 4.2689e-08 | |
a | 3.211494579529655 | 3.0081e-08 | au |
q | 3.070453206977577 | 1.3744e-07 | au |
i | 17.59791760564209 | 5.7801e-06 | deg |
node | 203.7989120887704 | 1.221e-05 | deg |
peri | 306.3109403025802 | 6.1075e-05 | deg |
M | 80.85247020715953 | 5.8847e-05 | deg |
tp | 2458728.382597420213 (2019-Sep-01.88259742) | 0.00034501 | TDB |
period | 2102.128289874725 5.76 | 2.9535e-05 8.086e-08 | d yr |
n | .1712550093797815 | 2.4062e-09 | deg/d |
Q | 3.352535952081732 | 3.1402e-08 | au |
|
| | Orbit Determination Parameters
Additional Information
|